• In Deutschland
  • Länderverzeichnis
  • Für 7 Tage
  • Wassertemperatur
  • Satellitenkarten
  • Wetterkarte
  • Widgets
  • user-avatar
    Anmelden

    Stündliche Wetter Landsberg am Lech

    Heute, 24 Oktober, Mittwoch

    Zeit Temperatur Niederschläge Wind Luftdruck Luftfeuchtigkeit
    00:00 +9°C° 0.1 mm 6 m/S 713 mmHg 62%
    01:00 +8°C° 0.1 mm 6 m/S 713 mmHg 65%
    02:00 +8°C° 0.1 mm 6 m/S 712 mmHg 68%
    03:00 +8°C° 0.1 mm 6 m/S 712 mmHg 71%
    04:00 +8°C° 0.1 mm 6 m/S 711 mmHg 74%
    05:00 +8°C° 0.7 mm 6 m/S 711 mmHg 79%
    06:00 +7°C° 0.7 mm 6 m/S 711 mmHg 84%
    07:00 +6°C° 0.7 mm 7 m/S 711 mmHg 88%
    08:00 +6°C° 0.8 mm 7 m/S 711 mmHg 89%
    09:00 +8°C° 0.8 mm 7 m/S 711 mmHg 90%
    10:00 +8°C° 0.8 mm 7 m/S 711 mmHg 91%
    11:00 +8°C° 0.8 mm 7 m/S 711 mmHg 91%
    12:00 +8°C° 0.8 mm 7 m/S 711 mmHg 92%
    13:00 +9°C° 0.8 mm 6 m/S 711 mmHg 92%
    14:00 +9°C° 0.8 mm 6 m/S 711 mmHg 93%
    15:00 +9°C° 0.8 mm 6 m/S 711 mmHg 93%
    16:00 +9°C° 0.8 mm 6 m/S 711 mmHg 93%
    17:00 +9°C° 0.6 mm 5 m/S 712 mmHg 94%
    18:00 +9°C° 0.6 mm 5 m/S 712 mmHg 94%
    19:00 +9°C° 0.6 mm 5 m/S 712 mmHg 94%
    20:00 +10°C° 0.3 mm 4 m/S 712 mmHg 94%
    21:00 +10°C° 0.3 mm 4 m/S 712 mmHg 95%
    22:00 +10°C° 0.3 mm 4 m/S 713 mmHg 95%
    23:00 +10°C° 0.1 mm 4 m/S 712 mmHg 95%

    Morgen, 25 Oktober, Donnerstag

    Zeit Temperatur Niederschläge Wind Luftdruck Luftfeuchtigkeit
    00:00 +10°C° 0.1 mm 3 m/S 712 mmHg 95%
    01:00 +10°C° 0.1 mm 3 m/S 712 mmHg 96%
    02:00 +9°C° 0 mm 3 m/S 712 mmHg 96%
    03:00 +9°C° 0 mm 3 m/S 712 mmHg 96%
    04:00 +9°C° 0 mm 3 m/S 712 mmHg 96%
    05:00 +8°C° 0 mm 2 m/S 711 mmHg 96%
    06:00 +8°C° 0 mm 2 m/S 711 mmHg 96%
    07:00 +7°C° 0 mm 2 m/S 711 mmHg 96%
    08:00 +9°C° 0 mm 3 m/S 711 mmHg 92%
    09:00 +10°C° 0 mm 3 m/S 710 mmHg 89%
    10:00 +12°C° 0 mm 3 m/S 710 mmHg 85%
    11:00 +13°C° 0 mm 3 m/S 710 mmHg 80%
    12:00 +14°C° 0 mm 3 m/S 710 mmHg 75%
    13:00 +16°C° 0 mm 3 m/S 710 mmHg 70%
    14:00 +14°C° 0 mm 3 m/S 709 mmHg 73%
    15:00 +14°C° 0 mm 3 m/S 709 mmHg 76%
    16:00 +14°C° 0 mm 2 m/S 709 mmHg 78%
    17:00 +13°C° 0 mm 2 m/S 709 mmHg 84%
    18:00 +11°C° 0 mm 1 m/S 709 mmHg 89%
    19:00 +9°C° 0 mm 1 m/S 708 mmHg 94%
    20:00 +9°C° 0 mm 1 m/S 708 mmHg 94%
    21:00 +9°C° 0 mm 1 m/S 708 mmHg 94%
    22:00 +9°C° 0 mm 1 m/S 708 mmHg 93%
    23:00 +8°C° 0 mm 1 m/S 708 mmHg 93%

    übermorgen, 26 Oktober, Freitag

    Zeit Temperatur Niederschläge Wind Luftdruck Luftfeuchtigkeit
    00:00 +8°C° 0 mm 1 m/S 708 mmHg 93%
    01:00 +7°C° 0 mm 0 m/S 707 mmHg 93%
    02:00 +8°C° 0 mm 1 m/S 707 mmHg 93%
    03:00 +7°C° 0 mm 1 m/S 706 mmHg 93%
    04:00 +7°C° 0 mm 1 m/S 706 mmHg 92%
    05:00 +7°C° 0 mm 1 m/S 706 mmHg 92%
    06:00 +7°C° 0 mm 1 m/S 705 mmHg 91%
    07:00 +7°C° 0 mm 1 m/S 705 mmHg 90%
    08:00 +7°C° 0 mm 2 m/S 705 mmHg 84%
    09:00 +9°C° 0 mm 2 m/S 705 mmHg 77%
    10:00 +11°C° 0 mm 3 m/S 705 mmHg 71%
    11:00 +12°C° 0 mm 3 m/S 705 mmHg 65%
    12:00 +13°C° 0 mm 4 m/S 704 mmHg 59%
    13:00 +14°C° 0 mm 4 m/S 704 mmHg 53%
    14:00 +14°C° 0 mm 4 m/S 704 mmHg 57%
    15:00 +13°C° 0 mm 3 m/S 703 mmHg 60%
    16:00 +12°C° 0 mm 3 m/S 703 mmHg 64%
    17:00 +11°C° 0 mm 3 m/S 703 mmHg 69%
    18:00 +9°C° 0 mm 2 m/S 703 mmHg 75%
    19:00 +7°C° 0 mm 2 m/S 704 mmHg 81%
    20:00 +6°C° 0 mm 2 m/S 704 mmHg 84%
    21:00 +5°C° 0 mm 2 m/S 704 mmHg 87%
    22:00 +5°C° 0 mm 2 m/S 704 mmHg 91%
    23:00 +5°C° 0 mm 2 m/S 704 mmHg 92%

    27 Oktober, Samstag

    Zeit Temperatur Niederschläge Wind Luftdruck Luftfeuchtigkeit
    00:00 +5°C° 0 mm 2 m/S 704 mmHg 93%
    01:00 +4°C° 0 mm 2 m/S 704 mmHg 94%
    02:00 +6°C° 0 mm 1 m/S 704 mmHg 93%
    03:00 +6°C° 0 mm 1 m/S 704 mmHg 92%
    04:00 +6°C° 0 mm 1 m/S 704 mmHg 91%
    05:00 +6°C° 0.3 mm 1 m/S 704 mmHg 92%
    06:00 +6°C° 0.3 mm 1 m/S 704 mmHg 92%
    07:00 +6°C° 0.3 mm 1 m/S 704 mmHg 93%
    08:00 +6°C° 0.6 mm 1 m/S 703 mmHg 91%
    09:00 +6°C° 0.6 mm 1 m/S 703 mmHg 88%
    10:00 +5°C° 0.6 mm 2 m/S 703 mmHg 86%
    11:00 +5°C° 0.7 mm 2 m/S 703 mmHg 85%
    12:00 +5°C° 0.7 mm 2 m/S 702 mmHg 85%
    13:00 +5°C° 0.7 mm 2 m/S 702 mmHg 84%
    14:00 +4°C° 0.9 mm 2 m/S 702 mmHg 86%
    15:00 +4°C° 0.9 mm 2 m/S 702 mmHg 88%
    16:00 +3°C° 0.9 mm 2 m/S 701 mmHg 89%
    17:00 +3°C° 0.8 mm 2 m/S 702 mmHg 91%
    18:00 +3°C° 0.8 mm 2 m/S 702 mmHg 92%
    19:00 +2°C° 0.8 mm 2 m/S 702 mmHg 93%
    20:00 +2°C° 0.5 mm 2 m/S 702 mmHg 93%
    21:00 +2°C° 0.5 mm 2 m/S 702 mmHg 93%
    22:00 +2°C° 0.5 mm 2 m/S 701 mmHg 94%
    23:00 +2°C° 0.6 mm 2 m/S 701 mmHg 94%

    28 Oktober, Sonntag

    Zeit Temperatur Niederschläge Wind Luftdruck Luftfeuchtigkeit
    00:00 +1°C° 0.6 mm 3 m/S 701 mmHg 95%
    01:00 +1°C° 0.6 mm 3 m/S 701 mmHg 95%
    02:00 +1°C° 0.5 mm 3 m/S 700 mmHg 95%
    03:00 0°C° 0.5 mm 4 m/S 700 mmHg 95%
    04:00 0°C° 0.5 mm 4 m/S 699 mmHg 95%
    05:00 -1°C° 0.8 mm 4 m/S 699 mmHg 95%
    06:00 -1°C° 0.8 mm 5 m/S 699 mmHg 95%
    07:00 -1°C° 0.8 mm 5 m/S 698 mmHg 96%
    08:00 -1°C° 1.7 mm 5 m/S 699 mmHg 96%
    09:00 -1°C° 1.7 mm 4 m/S 699 mmHg 96%
    10:00 -1°C° 1.7 mm 4 m/S 699 mmHg 96%
    11:00 0°C° 0.8 mm 4 m/S 699 mmHg 97%
    12:00 0°C° 0.8 mm 4 m/S 699 mmHg 97%
    13:00 0°C° 0.8 mm 4 m/S 699 mmHg 97%
    14:00 0°C° 0.5 mm 4 m/S 699 mmHg 97%
    15:00 0°C° 0.5 mm 4 m/S 699 mmHg 97%
    16:00 0°C° 0.5 mm 4 m/S 699 mmHg 97%
    17:00 0°C° 0.3 mm 4 m/S 699 mmHg 97%
    18:00 0°C° 0.3 mm 4 m/S 699 mmHg 97%
    19:00 0°C° 0.3 mm 4 m/S 699 mmHg 97%
    20:00 0°C° 0.4 mm 4 m/S 699 mmHg 97%
    21:00 0°C° 0.4 mm 4 m/S 699 mmHg 97%
    22:00 0°C° 0.4 mm 4 m/S 699 mmHg 97%
    23:00 0°C° 0.2 mm 4 m/S 699 mmHg 97%

    29 Oktober, Montag

    Zeit Temperatur Niederschläge Wind Luftdruck Luftfeuchtigkeit
    00:00 +1°C° 0.2 mm 3 m/S 699 mmHg 97%
    01:00 +1°C° 0.2 mm 3 m/S 698 mmHg 97%
    02:00 +1°C° 0.2 mm 3 m/S 698 mmHg 97%
    03:00 +1°C° 0.2 mm 3 m/S 698 mmHg 97%
    04:00 +1°C° 0.2 mm 3 m/S 697 mmHg 97%
    05:00 +1°C° 0.3 mm 3 m/S 697 mmHg 97%
    06:00 +1°C° 0.3 mm 3 m/S 697 mmHg 97%
    07:00 +1°C° 0.3 mm 3 m/S 697 mmHg 97%
    08:00 +1°C° 0.1 mm 3 m/S 697 mmHg 97%
    09:00 +2°C° 0.1 mm 3 m/S 697 mmHg 97%
    10:00 +2°C° 0.1 mm 3 m/S 697 mmHg 97%
    11:00 +2°C° 0 mm 3 m/S 697 mmHg 97%
    12:00 +3°C° 0 mm 4 m/S 696 mmHg 97%
    13:00 +3°C° 0 mm 4 m/S 696 mmHg 97%
    14:00 +3°C° 0 mm 4 m/S 696 mmHg 97%
    15:00 +3°C° 0.1 mm 4 m/S 696 mmHg 97%
    16:00 +4°C° 0.1 mm 3 m/S 696 mmHg 97%
    17:00 +4°C° 0.1 mm 3 m/S 696 mmHg 97%
    18:00 +4°C° 0.1 mm 3 m/S 697 mmHg 97%
    19:00 +4°C° 0.1 mm 3 m/S 697 mmHg 97%
    20:00 +4°C° 0.1 mm 3 m/S 697 mmHg 97%
    21:00 +3°C° 0.1 mm 3 m/S 697 mmHg 97%
    22:00 +4°C° 0.1 mm 2 m/S 697 mmHg 97%
    23:00 +3°C° 0 mm 3 m/S 696 mmHg 97%

    30 Oktober, Dienstag

    Zeit Temperatur Niederschläge Wind Luftdruck Luftfeuchtigkeit
    00:00 +3°C° 0 mm 3 m/S 696 mmHg 97%
    01:00 +3°C° 0 mm 3 m/S 695 mmHg 97%
    02:00 +4°C° 0.1 mm 4 m/S 694 mmHg 97%
    03:00 +4°C° 0.1 mm 4 m/S 693 mmHg 97%
    04:00 +4°C° 0.1 mm 4 m/S 692 mmHg 97%
    05:00 +5°C° 0 mm 4 m/S 692 mmHg 96%
    06:00 +5°C° 0 mm 4 m/S 692 mmHg 96%
    07:00 +5°C° 0 mm 3 m/S 692 mmHg 96%
    08:00 +7°C° 0 mm 3 m/S 692 mmHg 95%
    09:00 +7°C° 0 mm 2 m/S 693 mmHg 95%
    10:00 +8°C° 0 mm 2 m/S 693 mmHg 94%
    11:00 +9°C° 0 mm 2 m/S 694 mmHg 92%
    12:00 +9°C° 0 mm 2 m/S 694 mmHg 90%
    13:00 +10°C° 0 mm 2 m/S 694 mmHg 88%
    14:00 +9°C° 0 mm 2 m/S 695 mmHg 89%
    15:00 +9°C° 0 mm 3 m/S 695 mmHg 89%
    16:00 +8°C° 0 mm 3 m/S 695 mmHg 90%
    17:00 +7°C° 0 mm 3 m/S 696 mmHg 91%
    18:00 +5°C° 0 mm 3 m/S 697 mmHg 92%
    19:00 +4°C° 0 mm 3 m/S 697 mmHg 94%
    20:00 +3°C° 0 mm 3 m/S 698 mmHg 93%
    21:00 +3°C° 0 mm 3 m/S 698 mmHg 93%
    22:00 +2°C° 0 mm 3 m/S 699 mmHg 92%
    23:00 +2°C° 0 mm 3 m/S 699 mmHg 93%
    Mehr zeigen